{"data":{"norad_id":66647,"intl_designator":"2025-273A","name":"COSMOS 2597 (RODNIK-S *)","alt_names":[],"object_type":"PAYLOAD","status":"ACTIVE","operator":null,"country":"CIS","launch_date":"2025-11-25","launch_site_code":"PLMSC","launch_vehicle":null,"mission":null,"orbit_class":"UNKNOWN","rcs_meters":null,"size_class":null,"mass_kg":null,"dimensions":null,"purposes":[],"wikipedia_slug":null,"has_3d_model":false,"image_url":null,"decayed_at":null,"tle_current":{"epoch":"2026-09-20T13:08:33.252576Z","epoch_age_seconds":116890,"freshness":"FRESH","line1":"1 66647U 25273A   26263.54760709  .00000031  00000+0  15293-3 0  9991","line2":"2 66647  82.4955 111.2311 0012385  13.3345 346.8060 12.42901759 37144","mean_motion":12.42901759,"eccentricity":0.0012385,"inclination_deg":82.4955,"raan_deg":111.2311,"arg_perigee_deg":13.3345,"mean_anomaly_deg":346.806,"bstar":0.00015293,"rev_number":3714,"period_min":115.85790989294,"perigee_km":1484.5761609054,"apogee_km":1504.0762522681,"semimajor_km":7872.4632065868,"source":"CELESTRAK","updated_at":"2026-09-21T09:00:16.114048Z"}}}